This demonstration page uses our WeatherBlox Daily Observations layout. Learn more.

Hourly Observations for May 17, 2015

Temp ( °F °C ) Dew Point ( °F °C ) Humidity (%) Winds ( mph kmh ) Pressure ( in mb ) Visibility ( mi km ) Precip ( " mm )
12:15 am 00:15 Clear 55 12.5 50 10.2 86 86 SSE 7 11 29.56 1001 10 16.0934 0 0
12:35 am 00:35 Partly Cloudy 54 12.2 50 10.2 88 88 S 5 7 29.59 1002 10 16.0934 0 0
12:55 am 00:55 Clear 53 11.7 50 10 89 89 SW 6 9 29.59 1002 10 16.0934 0 0
1:15 am 01:15 Mostly Cloudy 54 12 50 10.2 89 89 SSW 6 9 29.62 1003 10 16.0934 0 0
1:35 am 01:35 Cloudy 54 12.2 50 10.2 88 88 SW 8 13 29.62 1003 10 16.0934 0 0
1:55 am 01:55 Mostly Cloudy 54 12.3 50 10 86 86 SW 5 7 29.62 1003 10 16.0934 0 0
2:15 am 02:15 Partly Cloudy 54 12.1 50 9.9 87 87 WSW 5 7 29.62 1003 10 16.0934 0 0
2:35 am 02:35 Mostly Cloudy 55 12.6 50 10 84 84 SW 5 7 29.59 1002 10 16.0934 0 0
2:55 am 02:55 Cloudy 55 12.5 50 10.1 85 85 SW 5 7 29.59 1002 10 16.0934 0 0
3:15 am 03:15 Mostly Cloudy 55 12.9 49 9.6 81 81 S 9 15 29.59 1002 10 16.0934 0 0
3:35 am 03:35 Partly Cloudy 54 12.3 49 9.5 83 83 S 8 13 29.62 1003 10 16.0934 0 0
3:55 am 03:55 Clear 53 11.8 49 9.5 86 86 S 7 11 29.62 1003 10 16.0934 0 0
4:15 am 04:15 Clear 53 11.4 49 9.5 88 88 SSW 6 9 29.62 1003 10 16.0934 0 0
4:35 am 04:35 Clear 51 10.6 49 9.2 91 91 SW 6 9 29.62 1003 10 16.0934 0 0
4:55 am 04:55 Mostly Cloudy 51 10.8 49 9.5 92 92 SSW 6 9 29.62 1003 10 16.0934 0 0
5:15 am 05:15 Mostly Cloudy 51 10.6 49 9.5 93 93 Calm 29.62 1003 10 16.0934 0 0
5:35 am 05:35 Mostly Cloudy 52 11 50 9.8 92 92 Calm 29.59 1002 10 16.0934 0 0
5:55 am 05:55 Cloudy 52 11 49 9.6 91 91 SW 3 6 29.62 1003 10 16.0934 0 0
6:15 am 06:15 Cloudy 53 11.5 51 10.3 92 92 SSW 8 13 29.62 1003 10 16.0934 0 0
6:35 am 06:35 Cloudy 52 11.2 51 10.3 94 94 SW 7 11 29.62 1003 7 11.26538 0 0
6:55 am 06:55 Cloudy 53 11.5 51 10.5 94 94 WSW 10 17 29.65 1004 7 11.26538 0 0
7:15 am 07:15 Partly Cloudy 53 11.5 51 10.5 94 94 WSW 9 15 29.65 1004 10 16.0934 0 0
7:35 am 07:35 Partly Cloudy 53 11.9 51 10.4 91 91 WSW 9 15 29.65 1004 10 16.0934 0 0
7:55 am 07:55 Partly Cloudy 55 13 52 11 88 88 WSW 8 13 29.62 1003 10 16.0934 0 0
8:15 am 08:15 Partly Cloudy 55 12.6 51 10.7 88 88 W 14 22 29.62 1003 10 16.0934 0 0
8:35 am 08:35 Sunny 56 13.4 52 11 86 86 W 14 22 29.65 1004 10 16.0934 0 0
8:55 am 08:55 Sunny 58 14.3 52 11.1 81 81 W 9 15 29.65 1004 10 16.0934 0 0
9:15 am 09:15 Sunny 59 15.1 53 11.4 79 79 W 13 20 29.65 1004 10 16.0934 0 0
9:35 am 09:35 Sunny 60 15.7 53 11.5 76 76 W 18 30 29.65 1004 10 16.0934 0 0
9:55 am 09:55 Sunny 62 16.8 53 11.5 71 71 W 20 31 29.62 1003 10 16.0934 0 0
10:15 am 10:15 Sunny 64 18 53 11.4 66 66 W 17 28 29.65 1004 10 16.0934 0 0
10:35 am 10:35 Sunny 65 18.6 52 10.9 61 61 WSW 13 20 29.65 1004 10 16.0934 0 0
10:55 am 10:55 Sunny 67 19.5 52 11 58 58 W 16 26 29.65 1004 10 16.0934 0 0
11:15 am 11:15 Sunny 67 19.6 51 10.7 57 57 W 14 22 29.65 1004 10 16.0934 0 0
11:35 am 11:35 Sunny 68 20.2 51 10.5 54 54 WSW 15 24 29.68 1005 10 16.0934 0 0
11:55 am 11:55 Sunny 70 21 50 10.1 50 50 W 15 24 29.65 1004 10 16.0934 0 0
12:15 pm 12:15 Sunny 70 21.2 51 10.8 52 52 W 13 20 29.68 1005 10 16.0934 0 0
12:35 pm 12:35 Sunny 71 21.6 51 10.6 50 50 W 13 20 29.68 1005 10 16.0934 0 0
12:55 pm 12:55 Sunny 72 22 49 9.7 46 46 WNW 14 22 29.68 1005 10 16.0934 0 0
1:15 pm 13:15 Sunny 73 22.5 48 8.9 42 42 WNW 10 17 29.68 1005 10 16.0934 0 0
1:35 pm 13:35 Sunny 73 22.8 48 8.7 41 41 W 13 20 29.68 1005 10 16.0934 0 0
1:55 pm 13:55 Partly Cloudy 73 23 48 8.8 40 40 W 12 19 29.68 1005 10 16.0934 0 0
2:15 pm 14:15 Partly Cloudy 73 23 47 8.6 40 40 WNW 10 17 29.68 1005 10 16.0934 0 0
2:35 pm 14:35 Partly Cloudy 74 23.4 47 8.2 38 38 W 13 20 29.68 1005 10 16.0934 0 0
2:55 pm 14:55 Partly Cloudy 74 23.3 46 7.9 37 37 W 14 22 29.68 1005 10 16.0934 0 0
3:15 pm 15:15 Partly Cloudy 77 24.8 45 7.4 33 33 W 15 24 29.65 1004 10 16.0934 0 0
3:35 pm 15:35 Mostly Cloudy 75 23.7 45 7.1 35 35 W 12 19 29.71 1006 10 16.0934 0 0
3:55 pm 15:55 Partly Cloudy 76 24.6 45 7 32 32 W 15 24 29.68 1005 10 16.0934 0 0
4:15 pm 16:15 Partly Cloudy 75 24.1 43 6 31 31 WSW 12 19 29.71 1006 10 16.0934 0 0
4:35 pm 16:35 Partly Cloudy 77 25 43 6.3 30 30 W 15 24 29.68 1005 10 16.0934 0 0
4:55 pm 16:55 Partly Cloudy 77 25 45 7.1 32 32 WSW 14 22 29.68 1005 10 16.0934 0 0
5:15 pm 17:15 Sunny 76 24.5 42 5.4 29 29 W 14 22 29.68 1005 10 16.0934 0 0
5:35 pm 17:35 Partly Cloudy 74 23.5 42 5.4 31 31 W 12 19 29.74 1007 10 16.0934 0 0
5:55 pm 17:55 Partly Cloudy 76 24.6 43 5.9 30 30 WNW 12 19 29.74 1007 10 16.0934 0 0
6:15 pm 18:15 Partly Cloudy 73 23 46 7.5 37 37 NNW 9 15 29.74 1007 10 16.0934 0 0
6:35 pm 18:35 Partly Cloudy 72 22.2 46 7.8 40 40 NNW 10 17 29.77 1008 10 16.0934 0 0
6:55 pm 18:55 Cloudy with Rain 64 17.7 49 9.4 58 58 WNW 22 35 29.88 1012 10 16.0934 0 0
7:15 pm 19:15 Mostly Cloudy with Nearby Thunderstorms 60 15.7 52 10.9 73 73 N 12 19 29.85 1011 10 16.0934 0.01 0.254
7:35 pm 19:35 Partly Cloudy 62 16.5 53 11.5 72 72 NNW 10 17 29.88 1012 10 16.0934 0.01 0.254
7:55 pm 19:55 Partly Cloudy 62 16.8 52 11.2 70 70 N 6 9 29.88 1012 10 16.0934 0.01 0.254
8:15 pm 20:15 Sunny 61 16.1 53 11.9 76 76 NNE 3 6 29.88 1012 10 16.0934 0 0
8:35 pm 20:35 Sunny 60 15.8 53 11.6 76 76 Calm 29.91 1013 10 16.0934 0 0
8:55 pm 20:55 Partly Cloudy 60 15.4 54 12 80 80 Calm 29.94 1014 10 16.0934 0 0
9:15 pm 21:15 Clear 59 15.1 54 12 82 82 Calm 29.94 1014 10 16.0934 0 0
9:35 pm 21:35 Clear 59 14.8 53 11.7 82 82 Calm 29.97 1015 10 16.0934 0 0
9:55 pm 21:55 Clear 59 15 53 11.6 80 80 Calm 29.97 1015 10 16.0934 0 0
10:15 pm 22:15 Clear 58 14.6 52 11 79 79 Calm 29.97 1015 10 16.0934 0 0
10:35 pm 22:35 Clear 56 13.6 52 10.9 84 84 WNW 5 7 30 1016 10 16.0934 0 0
10:55 pm 22:55 Clear 57 13.8 51 10.7 82 82 N 10 17 30 1016 10 16.0934 0 0
11:15 pm 23:15 Clear 57 14.1 52 11 82 82 N 12 19 30.03 1017 10 16.0934 0 0
11:35 pm 23:35 Clear 56 13.5 51 10.7 83 83 N 9 15 30.03 1017 10 16.0934 0 0
11:55 pm 23:55 Clear 56 13.1 51 10.4 84 84 N 10 17 30.06 1018 10 16.0934 0 0

Powered by AerisWeather